Adana/Incirlik, Turkey

3:32 PM +03 on December 03, 2016 (GMT +0300)
Incirlik Air Base

Weather History for LTAG - October, 2013

Change the Weather History Date:

Thursday, October 24, 2013

  Actual Average Record
Temperature  
Mean Temperature 68 °F -  
Max Temperature 82 °F 77 °F 87 °F (1998)
Min Temperature 54 °F 57 °F 48 °F (2005)
Cooling Degree Days 3    
Growing Degree Days 18 (Base 50)    
Moisture  
Dew Point 34 °F    
Average Humidity 28    
Maximum Humidity 63    
Minimum Humidity 7    
Precipitation  
Precipitation 0.00 in - - ()
Sea Level Pressure  
Sea Level Pressure 29.99 in    
Wind  
Wind Speed 12 mph ()    
Max Wind Speed 25 mph    
Max Gust Speed -    
Visibility 6.0 miles    
Events      
Averages and records for this station are not official NWS values.
T = Trace of Precipitation, MM = Missing Value Source: Averaged Metar Reports

Daily Weather History Graph

Daily Weather History Graph

Search for Another Location

Airport or City:

Trip Planner

Search our weather history database for the weather conditions in past years. The results will help you decide how hot, cold, wet, or windy it might be!

Date:

Astronomy

Oct. 24, 2013 Rise Set
Actual Time 6:54 AM EEST 5:50 PM EEST
Civil Twilight 6:27 AM EEST 6:16 PM EEST
Nautical Twilight 5:57 AM EEST 6:46 PM EEST
Astronomical Twilight 5:27 AM EEST 7:16 PM EEST
Moon 9:58 PM EEST (10/24) 11:37 AM EEST (10/24)
Length of Visible Light 11h 48m
Length of Day
10h 55m
Waning Gibbous, 74% of the Moon is Illuminated
Oct 24
Waning Gibbous
Oct 27
Last Quarter
Nov 3
New
Nov 10
First Quarter
Nov 17
Full

Hourly Weather History & Observations

Time (EEST) Temp. Dew Point Humidity Pressure Visibility Wind Dir Wind Speed Gust Speed Precip Events Conditions
12:20 AM 57.2 °F 44.6 °F 63% 29.98 in - NE 3.5 mph - N/A   Clear
12:50 AM 60.8 °F 42.8 °F 52% 29.98 in - NNE 2.3 mph - N/A   Clear
1:20 AM 64.4 °F 41.0 °F 42% 29.98 in - NNE 9.2 mph - N/A   Clear
1:50 AM 68.0 °F 39.2 °F 35% 29.98 in - NE 13.8 mph - N/A   Clear
2:20 AM 69.8 °F 37.4 °F 31% 29.98 in - NE 17.3 mph - N/A   Clear
2:50 AM 69.8 °F 37.4 °F 31% 29.98 in - NNE 15.0 mph - N/A   Clear
3:00 AM 69 °F 37 °F 20% 29.96 in 6 mi NNE 15.0 mph - -  
3:20 AM 68.0 °F 37.4 °F 33% 29.98 in - NE 17.3 mph - N/A   Clear
3:50 AM 66.2 °F 39.2 °F 37% 29.98 in - NNE 11.5 mph - N/A   Clear
4:20 AM 66.2 °F 37.4 °F 35% 29.98 in - NNE 13.8 mph - N/A   Clear
4:50 AM 66.2 °F 37.4 °F 35% 29.98 in - NE 12.7 mph - N/A   Clear
5:20 AM 64.4 °F 37.4 °F 37% 29.98 in - NNE 13.8 mph - N/A   Clear
5:50 AM 62.6 °F 37.4 °F 39% 29.98 in - NNE 10.4 mph - N/A   Clear
6:20 AM 62.6 °F 37.4 °F 39% 29.98 in - North 12.7 mph - N/A   Clear
6:50 AM 60.8 °F 35.6 °F 39% 29.98 in - NE 10.4 mph - N/A   Clear
7:20 AM 62.6 °F 35.6 °F 37% 30.01 in - North 8.1 mph - N/A   Clear
7:50 AM 66.2 °F 35.6 °F 32% 30.01 in - NE 9.2 mph - N/A   Clear
8:20 AM 68.0 °F 33.8 °F 28% 30.01 in - NNE 23.0 mph - N/A   Clear
8:50 AM 69.8 °F 33.8 °F 27% 30.01 in - NNE 25.3 mph - N/A   Clear
9:00 AM 69 °F 34 °F 17% 30.02 in 6 mi NNE 25.3 mph - -  
9:20 AM 71.6 °F 33.8 °F 25% 30.01 in - NNE 25.3 mph - N/A   Clear
9:50 AM 73.4 °F 33.8 °F 23% 30.01 in - NNE 21.9 mph - N/A   Clear
10:20 AM 73.4 °F 33.8 °F 23% 30.01 in - NNE 18.4 mph - N/A   Clear
10:50 AM 75.2 °F 33.8 °F 22% 30.01 in - NNE 18.4 mph - N/A   Clear
11:20 AM 77.0 °F 33.8 °F 21% 30.01 in - North 10.4 mph - N/A   Clear
11:50 AM 78.8 °F 30.2 °F 17% 30.01 in - NE 16.1 mph - N/A   Clear
12:20 PM 78.8 °F 26.6 °F 15% 29.98 in - NNE 20.7 mph - N/A   Clear
12:50 PM 80.6 °F 28.4 °F 15% 29.98 in - NNE 18.4 mph - N/A   Clear
1:20 PM 80.6 °F 30.2 °F 16% 29.98 in - North 20.7 mph - N/A   Clear
1:50 PM 80.6 °F 28.4 °F 15% 29.98 in - NNE 20.7 mph - N/A   Clear
2:20 PM 80.6 °F 28.4 °F 15% 29.95 in - North 17.3 mph - N/A   Clear
2:50 PM 80.6 °F 28.4 °F 15% 29.95 in - NNE 19.6 mph - N/A   Clear
3:00 PM 81 °F 28 °F 7% 29.96 in 6 mi NNE 19.6 mph - -  
3:20 PM 82.4 °F 28.4 °F 14% 29.95 in - North 18.4 mph - N/A   Clear
3:50 PM 80.6 °F 28.4 °F 15% 29.95 in - NE 20.7 mph - N/A   Clear
4:20 PM 78.8 °F 30.2 °F 17% 29.95 in - North 18.4 mph - N/A   Clear
4:50 PM 77.0 °F 32.0 °F 19% 29.98 in - North 18.4 mph - N/A   Clear
5:20 PM 75.2 °F 32.0 °F 21% 29.98 in - North 9.2 mph - N/A   Clear
5:50 PM 71.6 °F 32.0 °F 23% 29.98 in - North 9.2 mph - N/A   Clear
6:20 PM 71.6 °F 32.0 °F 23% 29.98 in - North 9.2 mph - N/A   Clear
6:50 PM 69.8 °F 33.8 °F 27% 30.01 in - North 6.9 mph - N/A   Clear
7:20 PM 66.2 °F 33.8 °F 30% 30.01 in - North 8.1 mph - N/A   Clear
7:50 PM 64.4 °F 33.8 °F 32% 30.01 in - North 8.1 mph - N/A   Clear
8:20 PM 64.4 °F 33.8 °F 32% 30.01 in - North 8.1 mph - N/A   Clear
8:50 PM 66.2 °F 33.8 °F 30% 30.01 in - North 9.2 mph - N/A   Clear
9:00 PM 67 °F 34 °F 18% 30.01 in 6 mi North 9.2 mph - -  
9:20 PM 66.2 °F 33.8 °F 30% 30.01 in - North 10.4 mph - N/A   Clear
9:50 PM 64.4 °F 33.8 °F 32% 30.01 in - North 9.2 mph - N/A   Clear
10:20 PM 64.4 °F 35.6 °F 34% 30.01 in - North 6.9 mph - N/A   Clear
10:50 PM 62.6 °F 35.6 °F 37% 30.01 in - North 8.1 mph - N/A   Clear
11:20 PM 62.6 °F 35.6 °F 37% 30.01 in - North 6.9 mph - N/A   Clear
11:50 PM 62.6 °F 35.6 °F 37% 30.01 in - North 6.9 mph - N/A   Clear